Location: Newark
(34.6283°N, 36.0776°E)
Time: 23:49:57
(UTC+00:00)

A-11 Canister half - Visible Passes

Search period start: 18 September 2019 00:00
Search period end: 28 September 2019 00:00
Orbit: 1527 x 1682 km, 47.3° (Epoch: 17 September)

Date Brightness Start Highest point End Pass type
(mag) Time Alt. Az. Time Alt. Az. Time Alt. Az.
18 Sep 9.2 01:05:24 37° SSW 01:09:21 62° SE 01:18:45 10° ENE visible
18 Sep 11.0 22:46:59 11° ESE 22:46:59 11° ESE 22:47:39 10° E visible
19 Sep 9.2 00:45:18 47° S 00:47:46 59° SE 00:57:05 10° ENE visible
19 Sep 9.3 02:43:43 10° WSW 02:52:56 55° NNW 03:02:29 10° NE visible
20 Sep 9.2 00:25:09 54° SSE 00:26:10 56° SE 00:35:23 10° ENE visible
20 Sep 9.3 02:23:28 16° W 02:31:15 57° NNW 02:40:48 10° NE visible
21 Sep 9.3 00:04:57 53° SE 00:04:57 53° SE 00:13:42 10° ENE visible
21 Sep 9.2 02:03:15 23° W 02:09:34 59° NNW 02:19:07 10° NE visible
21 Sep 9.6 23:44:42 46° ESE 23:44:42 46° ESE 23:52:01 10° ENE visible
22 Sep 9.1 01:43:00 31° W 01:47:55 61° NNW 01:57:28 10° NE visible
22 Sep 9.9 23:24:24 37° E 23:24:24 37° E 23:30:19 10° ENE visible
23 Sep 9.1 01:22:43 41° W 01:26:15 63° NNW 01:35:48 10° NE visible
23 Sep 10.3 23:04:05 29° E 23:04:05 29° E 23:08:36 10° ENE visible
24 Sep 9.0 01:02:23 53° W 01:04:36 66° NNW 01:14:08 10° NE visible
24 Sep 10.6 22:43:43 22° ENE 22:43:43 22° ENE 22:46:54 10° ENE visible
25 Sep 8.9 00:42:02 65° WNW 00:42:56 68° NNW 00:52:29 10° NE visible
25 Sep 9.8 02:40:43 10° WNW 02:49:25 39° N 02:58:23 10° ENE visible
25 Sep 10.8 22:23:20 17° ENE 22:23:20 17° ENE 22:25:11 10° ENE visible
26 Sep 8.9 00:21:38 70° NNW 00:21:38 70° NNW 00:30:49 10° NE visible
26 Sep 9.8 02:19:56 13° WNW 02:27:41 40° N 02:36:39 10° ENE visible
26 Sep 11.1 22:02:56 12° ENE 22:02:56 12° ENE 22:03:28 10° ENE visible
27 Sep 9.2 00:01:14 62° NNE 00:01:14 62° NNE 00:09:10 10° NE visible
27 Sep 9.8 01:59:32 18° WNW 02:05:58 40° N 02:14:54 10° ENE visible
27 Sep 9.5 23:40:48 51° NE 23:40:48 51° NE 23:47:31 10° NE visible
